Weather History for KLEX - October, 2013

Change the Weather History Date:

Monday, October 14, 2013

  Actual Average Record
Temperature  
Mean Temperature 63 °F 58 °F  
Max Temperature 74 °F 68 °F 86 °F (1897)
Min Temperature 52 °F 47 °F 29 °F (1979)
Degree Days  
Heating Degree Days 2 8  
Month to date heating degree days 34 91  
Since 1 July heating degree days 54 145  
Cooling Degree Days 0 1  
Month to date cooling degree days 41 18  
Year to date cooling degree days 1242 1181  
Growing Degree Days 12 (Base 50)    
Moisture  
Dew Point 54 °F    
Average Humidity 75    
Maximum Humidity 96    
Minimum Humidity 53    
Precipitation  
Precipitation 0.00 in 0.10 in 2.13 in (1919)
Month to date precipitation 4.00 1.36  
Year to date precipitation 49.27 35.94  
Snow  
Snow 0.00 in 0.00 in 0.00 in ()
Month to date snowfall 0.0 0.0  
Since 1 July snowfall 0.0 0.0  
Since 1 September snowfall 0.0 0.0  
Snow Depth 0.00 in    
Sea Level Pressure  
Sea Level Pressure 30.24 in    
Wind  
Wind Speed 7 mph (NNE)    
Max Wind Speed 13 mph    
Max Gust Speed 16 mph    
Visibility 9 miles    
Events      
T = Trace of Precipitation, MM = Missing Value Source: NWS Daily Summary

Daily Weather History Graph

Daily Weather History Graph

Search for Another Location

Airport or City:

Trip Planner

Search our weather history database for the weather conditions in past years. The results will help you decide how hot, cold, wet, or windy it might be!

Date:

Astronomy

Oct. 14, 2013 Rise Set
Actual Time 7:46 AM EDT 7:01 PM EDT
Civil Twilight 7:19 AM EDT 7:28 PM EDT
Nautical Twilight 6:49 AM EDT 7:58 PM EDT
Astronomical Twilight 6:18 AM EDT 8:29 PM EDT
Moon 4:27 PM EDT (10/14) 3:06 AM EDT (10/14)
Length of Visible Light 12h 08m
Length of Day
11h 15m
Waxing Gibbous, 79% of the Moon is Illuminated
Oct 14
Waxing Gibbous
Oct 18
Full
Oct 26
Last Quarter
Nov 3
New
Nov 10
First Quarter

Hourly Weather History & Observations

Time (EDT) Temp. Dew Point Humidity Pressure Visibility Wind Dir Wind Speed Gust Speed Precip Events Conditions
12:54 AM 57.0 °F 55.0 °F 93% 30.27 in 7.0 mi North 4.6 mph - N/A   Clear
1:31 AM 55.9 °F 55.0 °F 97% 30.29 in 2.0 mi NW 3.5 mph - N/A   Clear
1:43 AM 57.0 °F 55.0 °F 93% 30.29 in 4.0 mi North 3.5 mph - N/A   Clear
1:54 AM 57.0 °F 55.0 °F 93% 30.27 in 4.0 mi NNE 4.6 mph - N/A   Clear
2:54 AM 55.9 °F 53.1 °F 90% 30.25 in 7.0 mi NE 6.9 mph - N/A   Clear
3:54 AM 53.1 °F 52.0 °F 96% 30.26 in 6.0 mi North 4.6 mph - N/A   Clear
4:54 AM 54.0 °F 51.1 °F 90% 30.27 in 7.0 mi North 4.6 mph - N/A   Clear
5:54 AM 52.0 °F 50.0 °F 93% 30.27 in 7.0 mi North 5.8 mph - N/A   Clear
6:32 AM 53.1 °F 50.0 °F 89% 30.29 in 9.0 mi NNE 4.6 mph - N/A   Mostly Cloudy
6:54 AM 53.1 °F 50.0 °F 89% 30.29 in 10.0 mi North 4.6 mph - N/A   Overcast
7:54 AM 54.0 °F 50.0 °F 86% 30.29 in 10.0 mi NE 6.9 mph - N/A   Mostly Cloudy
8:54 AM 54.0 °F 48.9 °F 83% 30.30 in 10.0 mi NE 9.2 mph - N/A   Scattered Clouds
9:54 AM 57.9 °F 50.0 °F 75% 30.31 in 10.0 mi NE 6.9 mph - N/A   Clear
10:54 AM 63.0 °F 51.1 °F 65% 30.30 in 10.0 mi NE 8.1 mph - N/A   Clear
11:54 AM 66.9 °F 53.1 °F 61% 30.28 in 10.0 mi Variable 3.5 mph - N/A   Clear
12:54 PM 70.0 °F 54.0 °F 57% 30.26 in 10.0 mi ENE 8.1 mph - N/A   Clear
1:54 PM 72.0 °F 55.9 °F 57% 30.24 in 10.0 mi NNE 6.9 mph - N/A   Partly Cloudy
2:54 PM 73.9 °F 57.9 °F 57% 30.21 in 10.0 mi NNE 8.1 mph - N/A   Scattered Clouds
3:54 PM 73.0 °F 55.9 °F 55% 30.18 in 10.0 mi North 5.8 mph - N/A   Partly Cloudy
4:54 PM 73.0 °F 57.0 °F 57% 30.18 in 10.0 mi NNE 5.8 mph - N/A   Clear
5:54 PM 70.0 °F 55.9 °F 61% 30.19 in 10.0 mi North 6.9 mph - N/A   Clear
6:54 PM 66.0 °F 55.9 °F 70% 30.18 in 10.0 mi NNE 4.6 mph - N/A   Clear
7:54 PM 63.0 °F 55.0 °F 75% 30.18 in 10.0 mi ENE 6.9 mph - N/A   Clear
8:54 PM 62.1 °F 55.0 °F 78% 30.16 in 10.0 mi NE 8.1 mph - N/A   Clear
9:54 PM 64.0 °F 57.0 °F 78% 30.17 in 10.0 mi ENE 10.4 mph - N/A   Clear
10:54 PM 63.0 °F 57.9 °F 84% 30.18 in 10.0 mi East 9.2 mph - N/A   Clear
11:54 PM 62.1 °F 57.9 °F 86% 30.17 in 10.0 mi East 6.9 mph - N/A   Clear